Weather History for Provincetown, MA

Change the Weather History Date:

Monday, June 10, 2013

  Actual Average Record
Temperature  
Mean Temperature 63 °F -  
Max Temperature 69 °F 66 °F 87 °F (2008)
Min Temperature 57 °F 53 °F 48 °F (1956)
Degree Days  
Heating Degree Days 2    
Growing Degree Days 13 (Base 50)    
Moisture  
Dew Point 56 °F    
Average Humidity 81    
Maximum Humidity 94    
Minimum Humidity 64    
Precipitation  
Precipitation 0.44 in - - ()
Sea Level Pressure  
Sea Level Pressure 30.16 in    
Wind  
Wind Speed 7 mph (East)    
Max Wind Speed 15 mph    
Max Gust Speed 18 mph    
Visibility 10 miles    
Events      
Averages and records for this station are not official NWS values.
T = Trace of Precipitation, MM = Missing Value Source: NWS Daily Summary

Daily Weather History Graph

Daily Weather History Graph

Search for Another Location

Airport:

Trip Planner

Search our weather history database for the weather conditions in past years. The results will help you decide how hot, cold, wet, or windy it might be!

Date:

Astronomy

Jun. 10, 2013 Rise Set
Actual Time 5:04 AM EDT 8:16 PM EDT
Civil Twilight 4:30 AM EDT 8:50 PM EDT
Nautical Twilight 3:46 AM EDT 9:34 PM EDT
Astronomical Twilight 2:53 AM EDT 10:27 PM EDT
Moon 6:51 AM EDT (6/10) 9:39 PM EDT (6/10)
Length of Visible Light 16h 20m
Length of Day
15h 11m
Waxing Crescent, 4% of the Moon is Illuminated
Jun 10
Waxing Crescent
Jun 16
First Quarter
Jun 23
Full
Jun 30
Last Quarter
Jul 8
New

Hourly Weather History & Observations

Time (EDT) Temp. Dew Point Humidity Pressure Visibility Wind Dir Wind Speed Gust Speed Precip Events Conditions
12:15 AM 60.8 °F 57.2 °F 88% 30.17 in 10.0 mi SSW 4.6 mph - N/A   Clear
12:35 AM 60.8 °F 57.2 °F 88% 30.17 in 10.0 mi West 6.9 mph - N/A   Clear
12:55 AM 60.8 °F 57.2 °F 88% 30.17 in 10.0 mi West 6.9 mph - N/A   Clear
1:15 AM 62.6 °F 57.2 °F 82% 30.17 in 10.0 mi West 8.1 mph - N/A   Clear
1:35 AM 62.6 °F 57.2 °F 82% 30.17 in 10.0 mi West 9.2 mph - N/A   Clear
1:55 AM 62.6 °F 57.2 °F 82% 30.17 in 10.0 mi West 8.1 mph - N/A   Clear
2:15 AM 60.8 °F 57.2 °F 88% 30.16 in 10.0 mi West 8.1 mph - N/A   Clear
2:35 AM 62.6 °F 57.2 °F 82% 30.16 in 10.0 mi West 6.9 mph - N/A   Clear
2:55 AM 60.8 °F 57.2 °F 88% 30.17 in 10.0 mi West 6.9 mph - N/A   Clear
3:15 AM 60.8 °F 57.2 °F 88% 30.17 in 10.0 mi West 6.9 mph - N/A   Clear
3:35 AM 60.8 °F 57.2 °F 88% 30.17 in 10.0 mi West 5.8 mph - N/A   Clear
3:55 AM 60.8 °F 55.4 °F 82% 30.17 in 10.0 mi West 6.9 mph - N/A   Clear
4:15 AM 60.8 °F 55.4 °F 82% 30.17 in 10.0 mi West 3.5 mph - N/A   Clear
4:35 AM 59.0 °F 55.4 °F 88% 30.17 in 10.0 mi West 4.6 mph - N/A   Clear
4:55 AM 60.8 °F 55.4 °F 82% 30.18 in 10.0 mi WNW 3.5 mph - N/A   Clear
5:15 AM 59.0 °F 55.4 °F 88% 30.19 in 10.0 mi NNW 3.5 mph - N/A   Clear
5:35 AM 59.0 °F 55.4 °F 88% 30.19 in 10.0 mi North 4.6 mph - N/A   Clear
5:55 AM 60.8 °F 55.4 °F 82% 30.19 in 10.0 mi NNE 5.8 mph - N/A   Clear
6:15 AM 60.8 °F 55.4 °F 82% 30.20 in 10.0 mi NE 5.8 mph - N/A   Clear
6:35 AM 60.8 °F 55.4 °F 82% 30.20 in 10.0 mi NE 6.9 mph - N/A   Clear
6:55 AM 60.8 °F 55.4 °F 82% 30.20 in 10.0 mi NE 8.1 mph - N/A   Clear
7:15 AM 60.8 °F 55.4 °F 82% 30.20 in 10.0 mi ENE 4.6 mph - N/A   Clear
7:35 AM 62.6 °F 55.4 °F 77% 30.21 in 10.0 mi ENE 5.8 mph - N/A   Clear
7:55 AM 62.6 °F 55.4 °F 77% 30.21 in 10.0 mi ENE 8.1 mph - N/A   Clear
8:15 AM 62.6 °F 55.4 °F 77% 30.21 in 10.0 mi ENE 8.1 mph - N/A   Clear
8:35 AM 64.4 °F 55.4 °F 73% 30.21 in 10.0 mi ENE 12.7 mph - N/A   Clear
8:55 AM 64.4 °F 55.4 °F 73% 30.21 in 10.0 mi ENE 10.4 mph - N/A   Clear
9:15 AM 64.4 °F 55.4 °F 73% 30.21 in 10.0 mi ENE 9.2 mph - N/A   Clear
9:35 AM 66.2 °F 57.2 °F 73% 30.21 in 10.0 mi East 13.8 mph - N/A   Clear
9:55 AM 64.4 °F 55.4 °F 73% 30.21 in 10.0 mi East 15.0 mph - N/A   Clear
10:15 AM 66.2 °F 57.2 °F 73% 30.21 in 10.0 mi East 12.7 mph - N/A   Clear
10:35 AM 69.8 °F 57.2 °F 64% 30.21 in 10.0 mi ESE 10.4 mph - N/A   Clear
10:55 AM 69.8 °F 57.2 °F 64% 30.22 in 10.0 mi East 8.1 mph - N/A   Clear
11:15 AM 68.0 °F 55.4 °F 64% 30.22 in 10.0 mi ENE 10.4 mph - N/A   Clear
11:35 AM 66.2 °F 55.4 °F 68% 30.21 in 10.0 mi East 11.5 mph - N/A   Clear
11:55 AM 66.2 °F 57.2 °F 73% 30.21 in 10.0 mi ENE 10.4 mph - N/A   Clear
12:15 PM 64.4 °F 55.4 °F 73% 30.21 in 10.0 mi East 8.1 mph - N/A   Clear
12:35 PM 64.4 °F 57.2 °F 77% 30.21 in 10.0 mi East 9.2 mph - N/A   Clear
12:55 PM 64.4 °F 57.2 °F 77% 30.21 in 10.0 mi East 10.4 mph - N/A   Clear
1:15 PM 64.4 °F 57.2 °F 77% 30.21 in 10.0 mi East 9.2 mph - N/A   Clear
1:35 PM 64.4 °F 55.4 °F 73% 30.21 in 10.0 mi East 8.1 mph - N/A   Partly Cloudy
1:55 PM 66.2 °F 57.2 °F 73% 30.20 in 10.0 mi ENE 9.2 mph - N/A   Clear
2:15 PM 66.2 °F 57.2 °F 73% 30.19 in 10.0 mi ENE 8.1 mph - N/A   Clear
2:35 PM 64.4 °F 57.2 °F 77% 30.19 in 10.0 mi East 6.9 mph - N/A   Mostly Cloudy
2:55 PM 64.4 °F 55.4 °F 73% 30.18 in 10.0 mi ESE 6.9 mph - N/A   Overcast
3:15 PM 64.4 °F 55.4 °F 73% 30.19 in 10.0 mi ESE 8.1 mph - N/A   Overcast
3:35 PM 64.4 °F 57.2 °F 77% 30.18 in 10.0 mi SE 6.9 mph - N/A   Overcast
3:55 PM 64.4 °F 57.2 °F 77% 30.17 in 10.0 mi SE 6.9 mph - N/A   Overcast
4:15 PM 64.4 °F 57.2 °F 77% 30.17 in 10.0 mi ESE 6.9 mph - N/A   Mostly Cloudy
4:35 PM 66.2 °F 55.4 °F 68% 30.17 in 10.0 mi SSE 4.6 mph - N/A   Scattered Clouds
4:55 PM 64.4 °F 55.4 °F 73% 30.16 in 10.0 mi ESE 4.6 mph - N/A   Partly Cloudy
5:15 PM 64.4 °F 55.4 °F 73% 30.15 in 10.0 mi ESE 8.1 mph - N/A   Mostly Cloudy
5:35 PM 62.6 °F 55.4 °F 77% 30.14 in 10.0 mi ENE 9.2 mph - N/A   Overcast
5:55 PM 60.8 °F 57.2 °F 88% 30.14 in 10.0 mi East 8.1 mph - N/A   Overcast
6:15 PM 60.8 °F 57.2 °F 88% 30.13 in 10.0 mi ESE 9.2 mph - N/A   Overcast
6:35 PM 60.8 °F 57.2 °F 88% 30.12 in 10.0 mi ESE 6.9 mph - N/A   Mostly Cloudy
6:55 PM 60.8 °F 57.2 °F 88% 30.11 in 10.0 mi SE 9.2 mph - N/A   Overcast
7:15 PM 60.8 °F 57.2 °F 88% 30.12 in 10.0 mi SE 8.1 mph - N/A   Overcast
7:35 PM 60.8 °F 55.4 °F 82% 30.11 in 10.0 mi SE 8.1 mph - N/A   Overcast
7:55 PM 60.8 °F 57.2 °F 88% 30.11 in 10.0 mi SE 8.1 mph - N/A   Overcast
8:15 PM 60.8 °F 57.2 °F 88% 30.11 in 10.0 mi SE 5.8 mph - 0.01 in   Overcast
8:35 PM 59.0 °F 57.2 °F 94% 30.11 in 10.0 mi SE 6.9 mph - 0.02 in   Overcast
8:55 PM 59.0 °F 55.4 °F 88% 30.10 in 10.0 mi ESE 6.9 mph - 0.04 in   Overcast
9:15 PM 59.0 °F 57.2 °F 94% 30.10 in 10.0 mi East 5.8 mph - 0.01 in   Overcast
9:35 PM 59.0 °F 57.2 °F 94% 30.09 in 9.0 mi ESE 9.2 mph - 0.03 in   Overcast
9:55 PM 57.2 °F 55.4 °F 94% 30.07 in 10.0 mi ESE 8.1 mph - 0.05 in   Overcast
10:15 PM 57.2 °F 55.4 °F 94% 30.07 in 10.0 mi East 10.4 mph - 0.01 in   Overcast
10:35 PM 57.2 °F 55.4 °F 94% 30.05 in 8.0 mi East 12.7 mph - 0.08 in   Overcast
10:55 PM 57.2 °F 55.4 °F 94% 30.06 in 10.0 mi East 8.1 mph - 0.12 in   Overcast
11:15 PM 57.2 °F 55.4 °F 94% 30.04 in 10.0 mi East 13.8 mph - 0.04 in   Overcast
11:35 PM 57.2 °F 55.4 °F 94% 30.04 in 9.0 mi ESE 10.4 mph 18.4 mph 0.08 in   Overcast
11:55 PM 57.2 °F 55.4 °F 94% 30.04 in 7.0 mi ESE 10.4 mph - 0.23 in   Overcast